IZ3MEZ-13 Weather Reports


Display with metric or nautical units.
time (UTC)temp
F
wind
direction
speed
MPH
gust
MPH
rain 1hr
in
rain 24hr
in
rain mn
in
humidity
%
barometer
mb
20260502213519 59 229 1.0 2.0 0.00 0.00 0.00 60 1021.8
20260502212522 57 226 1.0 2.0 0.00 0.00 0.00 64 1022.0
20260502211518 55 203 0.0 2.0 0.00 0.00 0.00 65 1022.0
20260502210521 55 0.0 0.0 0.00 0.00 0.00 64 1022.0
20260502205520 55 0.0 0.0 0.00 0.00 0.00 64 1022.0
20260502204516 56 0.0 0.0 0.00 0.00 0.00 63 1022.0
20260502203517 56 0.0 0.0 0.00 0.00 0.00 62 1022.1
20260502202528 57 0.0 0.0 0.00 0.00 0.00 62 1022.1
20260502201519 57 0.0 0.0 0.00 0.00 0.00 60 1022.2
20260502201016 57 0.0 0.0 0.00 0.00 0.00 60 1022.2
20260502200025 58 0.0 0.0 0.00 0.00 0.00 58 1022.1
20260502195016 59 0.0 0.0 0.00 0.00 0.00 57 1022.1
20260502194017 59 0.0 0.0 0.00 0.00 0.00 56 1022.1
20260502193025 60 0.0 0.0 0.00 0.00 0.00 54 1022.0
20260502192018 61 0.0 0.0 0.00 0.00 0.00 53 1022.0
20260502191025 61 0.0 0.0 0.00 0.00 0.00 52 1022.0
20260502190523 62 0.0 0.0 0.00 0.00 0.00 51 1021.9
20260502185517 63 198 0.0 1.0 0.00 0.00 0.00 50 1021.9
20260502184522 65 240 0.0 1.0 0.00 0.00 0.00 47 1021.9
20260502183529 67 0.0 0.0 0.00 0.00 0.00 44 1021.8
20260502182517 68 237 1.0 1.0 0.00 0.00 0.00 42 1021.7
20260502181516 70 225 1.0 1.0 0.00 0.00 0.00 40 1021.7
20260502181021 70 212 1.0 2.0 0.00 0.00 0.00 40 1021.6
20260502164020 76 208 5.0 10.0 0.00 0.00 0.00 35 1021.8
20260502163029 76 216 2.0 7.0 0.00 0.00 0.00 34 1022.0
20260502162022 77 223 3.0 7.0 0.00 0.00 0.00 34 1022.1
20260502161016 78 202 4.0 9.0 0.00 0.00 0.00 33 1022.0
20260502152026 85 224 5.0 9.0 0.00 0.00 0.00 29 1022.5
20260502151019 85 220 3.0 8.0 0.00 0.00 0.00 29 1022.5
20260502123017 81 203 4.0 11.0 0.00 0.00 0.00 34 1024.5
20260502122020 81 224 4.0 11.0 0.00 0.00 0.00 34 1024.7
20260502121022 80 215 5.0 11.0 0.00 0.00 0.00 34 1024.8
20260502115022 80 222 5.0 10.0 0.00 0.00 0.00 33 1025.0
20260502114030 81 218 3.0 8.0 0.00 0.00 0.00 35 1025.2
20260502113017 81 221 3.0 9.0 0.00 0.00 0.00 34 1025.3
20260502112026 81 193 3.0 7.0 0.00 0.00 0.00 35 1025.4
20260502111023 82 211 3.0 9.0 0.00 0.00 0.00 34 1025.6
20260502110019 81 201 2.0 4.0 0.00 0.00 0.00 35 1025.8
20260502105026 81 221 2.0 9.0 0.00 0.00 0.00 35 1025.9
20260502104017 79 193 3.0 8.0 0.00 0.00 0.00 35 1026.1
20260502103022 79 198 2.0 6.0 0.00 0.00 0.00 36 1026.2
20260502102022 78 198 3.0 6.0 0.00 0.00 0.00 37 1026.2
20260502101019 74 199 2.0 6.0 0.00 0.00 0.00 40 1026.4
20260502091022 68 203 2.0 3.0 0.00 0.00 0.00 48 1026.9
20260502090519 68 204 1.0 3.0 0.00 0.00 0.00 49 1027.0
20260502071516 60 20 1.0 3.0 0.00 0.00 0.00 59 1027.6
20260502070516 59 24 1.0 3.0 0.00 0.00 0.00 60 1027.6
20260502065517 58 18 2.0 3.0 0.00 0.00 0.00 60 1027.6
20260502064524 57 16 0.0 2.0 0.00 0.00 0.00 63 1027.7
20260502063521 56 30 0.0 2.0 0.00 0.00 0.00 64 1027.7
20260502062522 55 9 1.0 2.0 0.00 0.00 0.00 65 1027.7
20260502061522 54 15 1.0 2.0 0.00 0.00 0.00 66 1027.7
20260502060517 53 197 0.0 2.0 0.00 0.00 0.00 67 1027.7
20260502055528 53 0.0 0.0 0.00 0.00 0.00 68 1027.7
20260502054521 52 223 0.0 2.0 0.00 0.00 0.00 70 1027.6
20260502053517 51 0.0 0.0 0.00 0.00 0.00 71 1027.8
20260502052520 49 231 0.0 1.0 0.00 0.00 0.00 73 1027.7
20260502051523 49 0.0 0.0 0.00 0.00 0.00 74 1027.7
20260502050519 48 0.0 0.0 0.00 0.00 0.00 74 1027.7
20260502045516 48 0.0 0.0 0.00 0.00 0.00 75 1027.7
20260502044523 47 0.0 0.0 0.00 0.00 0.00 76 1027.7
20260502043516 46 0.0 0.0 0.00 0.00 0.00 77 1027.6
20260502042534 46 0.0 0.0 0.00 0.00 0.00 78 1027.7
20260502041517 45 0.0 0.0 0.00 0.00 0.00 79 1027.7
20260502040522 45 0.0 0.0 0.00 0.00 0.00 79 1027.5
20260502035521 44 0.0 0.0 0.00 0.00 0.00 80 1027.5
20260502034517 44 0.0 0.0 0.00 0.00 0.00 79 1027.6
20260502033524 44 0.0 0.0 0.00 0.00 0.00 78 1027.5
20260502032531 44 0.0 0.0 0.00 0.00 0.00 78 1027.5
20260502031516 44 0.0 0.0 0.00 0.00 0.00 78 1027.6
20260502030520 44 0.0 0.0 0.00 0.00 0.00 78 1027.7
20260502025517 44 0.0 0.0 0.00 0.00 0.00 77 1027.7
20260502024522 45 0.0 0.0 0.00 0.00 0.00 77 1027.8
20260502023519 45 0.0 0.0 0.00 0.00 0.00 78 1027.8
20260502022517 44 0.0 0.0 0.00 0.00 0.00 77 1027.6
20260502021522 44 0.0 0.0 0.00 0.00 0.00 77 1027.7
20260502020517 44 0.0 0.0 0.00 0.00 0.00 77 1027.5
20260502015516 44 0.0 0.0 0.00 0.00 0.00 77 1027.5
20260502014524 45 0.0 0.0 0.00 0.00 0.00 76 1027.6
20260502013523 45 0.0 0.0 0.00 0.00 0.00 76 1027.5
20260502012518 45 0.0 0.0 0.00 0.00 0.00 76 1027.6
20260502011517 45 0.0 0.0 0.00 0.00 0.00 76 1027.7
20260502010527 45 0.0 0.0 0.00 0.00 0.00 74 1027.6
20260502005516 45 0.0 0.0 0.00 0.00 0.00 73 1027.6
20260502004523 46 0.0 0.0 0.00 0.00 0.00 73 1027.7
20260502003518 46 0.0 0.0 0.00 0.00 0.00 72 1027.9
20260502002522 46 0.0 0.0 0.00 0.00 0.00 73 1027.8
20260502001529 47 0.0 0.0 0.00 0.00 0.00 73 1027.9
20260502000518 47 0.0 0.0 0.00 0.00 0.00 72 1027.8
20260501235519 47 0.0 0.0 0.00 0.00 0.00 72 1027.9
20260501234527 47 0.0 0.0 0.00 0.00 0.00 72 1027.9
20260501233520 47 0.0 0.0 0.00 0.00 0.00 72 1027.8
20260501232525 47 0.0 0.0 0.00 0.00 0.00 72 1027.7
20260501231524 47 0.0 0.0 0.00 0.00 0.00 72 1027.6
20260501230520 47 0.0 0.0 0.00 0.00 0.00 70 1027.7
20260501225519 47 0.0 0.0 0.00 0.00 0.00 69 1027.7
20260501224518 47 0.0 0.0 0.00 0.00 0.00 68 1027.7
20260501223523 47 0.0 0.0 0.00 0.00 0.00 68 1027.7
20260501222524 48 0.0 0.0 0.00 0.00 0.00 67 1027.7
20260501221518 48 0.0 0.0 0.00 0.00 0.00 67 1027.7
20260501220525 48 0.0 0.0 0.00 0.00 0.00 66 1027.5
20260501215515 48 0.0 0.0 0.00 0.00 0.00 65 1027.4
20260501214520 49 0.0 0.0 0.00 0.00 0.00 65 1027.3